sat.trackr.live / text

‹ back to catalog

STARLINK-31433

NORAD 59243 · 2024-049N

PAYLOAD ACTIVE UNKNOWN

§ Identity

Operator
Country
US
Launch date
2024-03-16
Launch site
AFETR
Launch vehicle
Mass (kg)
RCS (m²)

Purposes: comms

External: N2YO · Heavens-Above · Gunter

§ Orbital elements

Epoch: 2026-09-20T21:52:13.701216Z

Period
94.27 min
Inclination
43.0025°
Eccentricity
0.0000886
Mean motion
15.27576936 rev/d
Perigee alt
482.5 km
Apogee alt
483.7 km
Semi-major
6,861.2 km
B*
2.7957e-5
RAAN
120.9458°
Arg perigee
284.5910°
Mean anomaly
75.4843°
Rev number
14,226

§ Raw data

STARLINK-314331 59243U 24049N   26263.91126969  .00000507  00000+0  27957-4 0  99992 59243  43.0025 120.9458 0000886 284.5910  75.4843 15.27576936142266

JSON: /api/v1/satellites/59243 · /tle

For live sub-satellite position, see the globe view (requires WebGL).

§ Visibility from observer

Set your observer location to see the next 7 days of passes ≥ 10°. The values pass through the URL so the page stays shareable.

No JS? Fill the form by hand. The geolocation button needs JavaScript.